La Mesa, Honduras

4:10 AM CST on April 26, 2017 (GMT -0600)
La Mesa International

Weather History for MHLM - July, 2013

Change the Weather History Date:

Saturday, July 27, 2013

  Actual Average Record
Temperature  
Mean Temperature 81 °F -  
Max Temperature 91 °F 89 °F 95 °F (2007)
Min Temperature 71 °F 73 °F 71 °F (2002)
Cooling Degree Days 16    
Growing Degree Days 31 (Base 50)    
Moisture  
Dew Point 76 °F    
Average Humidity 85    
Maximum Humidity 100    
Minimum Humidity 57    
Precipitation  
Precipitation 0.08 in 0.14 in - ()
Sea Level Pressure  
Sea Level Pressure 29.97 in    
Wind  
Wind Speed 4 mph ()    
Max Wind Speed 16 mph    
Max Gust Speed -    
Visibility 6.1 miles    
Events Rain    
Averages and records for this station are not official NWS values.
T = Trace of Precipitation, MM = Missing Value Source: Averaged Metar Reports

Daily Weather History Graph

Daily Weather History Graph

Search for Another Location

Airport or City:

Trip Planner

Search our weather history database for the weather conditions in past years. The results will help you decide how hot, cold, wet, or windy it might be!

Date:

Astronomy

Jul. 27, 2013 Rise Set
Actual Time 5:32 AM CST 6:23 PM CST
Civil Twilight 5:09 AM CST 6:46 PM CST
Nautical Twilight 4:42 AM CST 7:13 PM CST
Astronomical Twilight 4:15 AM CST 7:41 PM CST
Moon 10:17 PM CST (7/27) 10:10 AM CST (7/27)
Length of Visible Light 13h 37m
Length of Day
12h 51m
Waning Gibbous, 70% of the Moon is Illuminated
Jul 27
Waning Gibbous
Jul 29
Last Quarter
Aug 6
New
Aug 14
First Quarter
Aug 20
Full

Hourly Weather History & Observations

Time (CST) Temp. Heat Index Dew Point Humidity Pressure Visibility Wind Dir Wind Speed Gust Speed Precip Events Conditions
12:00 AM 76 °F - 72 °F 86% 30.03 in 6 mi SE 4.6 mph - -   Haze
12:00 AM 77.0 °F - 71.6 °F 83% 30.04 in 6.2 mi SE 4.6 mph - N/A   Scattered Clouds
1:00 AM 77.0 °F - 71.6 °F 83% 30.04 in 6.2 mi SE 4.6 mph - N/A   Scattered Clouds
2:00 AM 75.2 °F - 71.6 °F 89% 30.04 in 6.2 mi Calm Calm - N/A   Scattered Clouds
3:00 AM 73 °F - 72 °F 98% 29.98 in 6 mi Calm Calm - -   Haze
3:00 AM 73.4 °F - 73.4 °F 100% 29.98 in 6.2 mi Calm Calm - N/A   Mostly Cloudy
4:00 AM 73.4 °F - 73.4 °F 100% 29.98 in 6.2 mi SW 2.3 mph - N/A   Mostly Cloudy
5:00 AM 71.6 °F - 71.6 °F 100% 29.98 in 6.2 mi Calm Calm - N/A   Mostly Cloudy
6:00 AM 72 °F - 72 °F 100% 29.99 in 6 mi Calm Calm - -   Haze
6:00 AM 71.6 °F - 71.6 °F 100% 29.98 in 6.2 mi Calm Calm - N/A   Mostly Cloudy
7:00 AM 75.2 °F - 75.2 °F 100% 29.98 in 6.2 mi Calm Calm - N/A   Mostly Cloudy
8:00 AM 80.6 °F 88.1 °F 78.8 °F 94% 29.98 in 6.2 mi NNW 2.3 mph - N/A   Mostly Cloudy
9:00 AM 84 °F - 80 °F 83% 29.99 in 6 mi Calm Calm - -   Haze
9:00 AM 84.2 °F 96.1 °F 78.8 °F 84% 29.98 in 6.2 mi NNW 2.3 mph - N/A   Scattered Clouds
10:00 AM 86.0 °F 99.3 °F 78.8 °F 79% 29.98 in 6.2 mi North 4.6 mph - N/A   Mostly Cloudy
11:00 AM 87.8 °F 102.5 °F 78.8 °F 75% 29.98 in 6.2 mi North 5.8 mph - N/A   Mostly Cloudy
12:00 PM 90 °F - 77 °F 57% 29.95 in 6 mi North 8.1 mph - -   Haze
12:00 PM 89.6 °F 102.2 °F 77.0 °F 66% 29.95 in 6.2 mi North 8.1 mph - N/A   Mostly Cloudy
1:00 PM 91.4 °F 105.1 °F 77.0 °F 63% 29.92 in 6.2 mi North 8.1 mph - N/A   Mostly Cloudy
2:00 PM 91.4 °F 107.2 °F 78.8 °F 66% 29.92 in 6.2 mi North 13.8 mph - N/A   Mostly Cloudy
3:00 PM 90 °F - 78 °F 59% 29.90 in 6 mi North 13.8 mph - -   Haze
3:00 PM 89.6 °F 102.2 °F 77.0 °F 66% 29.89 in 6.2 mi NNE 13.8 mph - N/A   Mostly Cloudy
4:00 PM 87.8 °F 102.5 °F 78.8 °F 75% 29.89 in 6.2 mi North 16.1 mph - N/A   Mostly Cloudy
5:00 PM 87.8 °F 102.5 °F 78.8 °F 75% 29.92 in 4.3 mi NNE 15.0 mph - N/A Rain Light Rain
6:00 PM 81 °F - 79 °F 93% 29.92 in 6 mi North 9.2 mph - -   Partly Cloudy
6:00 PM 80.6 °F 88.1 °F 78.8 °F 94% 29.92 in 6.2 mi North 9.2 mph - N/A   Mostly Cloudy
7:00 PM 80.6 °F 88.1 °F 78.8 °F 94% 29.95 in 6.2 mi North 2.3 mph - N/A   Partly Cloudy
8:00 PM 80.6 °F 88.1 °F 78.8 °F 94% 29.95 in 6.2 mi North 4.6 mph - N/A   Partly Cloudy
9:00 PM 80 °F - 79 °F 96% 29.97 in 7 mi North 2.3 mph - -   Haze
9:00 PM 80.6 °F 88.1 °F 78.8 °F 94% 29.98 in 6.2 mi North 2.3 mph - N/A   Partly Cloudy
10:00 PM 80.6 °F 88.1 °F 78.8 °F 94% 29.98 in 6.2 mi North 2.3 mph - N/A   Partly Cloudy
11:00 PM 80.6 °F 88.1 °F 78.8 °F 94% 29.98 in 6.2 mi NNW 6.9 mph - N/A   Scattered Clouds